Harvey, ND

3:31 PM CDT on August 18, 2017 (GMT -0500)
Harvey

Weather History for K5H4 - March, 2013

Change the Weather History Date:

Monday, March 4, 2013

  Actual Average (KRUG) Record (KRUG)
Temperature  
Mean Temperature 22 °F -  
Max Temperature 26 °F 27 °F 49 °F (1973)
Min Temperature 17 °F 8 °F -24 °F (1972)
Degree Days  
Heating Degree Days 42    
Moisture  
Dew Point 23 °F    
Average Humidity 99    
Maximum Humidity 100    
Minimum Humidity 93    
Precipitation  
Precipitation 1.72 in - - ()
Sea Level Pressure  
Sea Level Pressure 29.76 in    
Wind  
Wind Speed 19 mph (East)    
Max Wind Speed 24 mph    
Max Gust Speed 31 mph    
Visibility 3 miles    
Events Snow    
Averages and records for this station are not official NWS values.
T = Trace of Precipitation, MM = Missing Value Source: NWS Daily Summary

Daily Weather History Graph

Daily Weather History Graph

Search for Another Location

Airport or City:

Trip Planner

Search our weather history database for the weather conditions in past years. The results will help you decide how hot, cold, wet, or windy it might be!

Date:

Astronomy

Mar. 04, 2013 Rise Set
Actual Time 7:14 AM CST 6:29 PM CST
Civil Twilight 6:43 AM CST 7:00 PM CST
Nautical Twilight 6:07 AM CST 7:36 PM CST
Astronomical Twilight 5:31 AM CST 8:12 PM CST
Moon 1:43 AM CST (3/4) 10:53 AM CST (3/4)
Length of Visible Light 12h 17m
Length of Day
11h 15m
Waning Gibbous, 52% of the Moon is Illuminated
Mar 4
Waning Gibbous
Mar 4
Last Quarter
Mar 11
New
Mar 19
First Quarter
Mar 27
Full

Hourly Weather History & Observations

Time (CST) Temp. Windchill Dew Point Humidity Pressure Visibility Wind Dir Wind Speed Gust Speed Precip Events Conditions
12:15 AM 24.8 °F 9.6 °F 23.0 °F 93% 29.68 in 6.0 mi ESE 23.0 mph - N/A   Overcast
12:35 AM 24.8 °F 10.0 °F 23.0 °F 93% 29.67 in 4.0 mi ESE 21.9 mph - N/A   Overcast
12:55 AM 23.0 °F 7.2 °F 23.0 °F 100% 29.67 in 5.0 mi ESE 23.0 mph - N/A   Overcast
1:15 AM 23.0 °F 7.6 °F 23.0 °F 100% 29.67 in 4.0 mi ESE 21.9 mph - N/A   Overcast
1:35 AM 23.0 °F 8.0 °F 23.0 °F 100% 29.66 in 1.8 mi ESE 20.7 mph - N/A Snow Light Snow
1:55 AM 23.0 °F 7.6 °F 23.0 °F 100% 29.66 in 1.0 mi ESE 21.9 mph - 0.02 in Snow Light Snow
2:15 AM 23.0 °F 10.6 °F 23.0 °F 100% 29.69 in 1.0 mi SE 13.8 mph - 0.01 in Snow Light Snow
2:35 AM 23.0 °F 10.1 °F 23.0 °F 100% 29.69 in 0.5 mi ESE 15.0 mph - 0.07 in Snow Snow
2:55 AM 23.0 °F 9.2 °F 23.0 °F 100% 29.68 in 0.5 mi ESE 17.3 mph - 0.14 in Snow Snow
3:15 AM 23.0 °F 8.3 °F 23.0 °F 100% 29.66 in 1.5 mi ESE 19.6 mph - N/A Snow Light Snow
3:35 AM 23.0 °F 8.3 °F 23.0 °F 100% 29.66 in 0.8 mi ESE 19.6 mph - 0.04 in Snow Light Snow
3:55 AM 23.0 °F 8.0 °F 23.0 °F 100% 29.65 in 0.8 mi ESE 20.7 mph - 0.06 in Snow Light Snow
4:15 AM 23.0 °F 6.9 °F 23.0 °F 100% 29.64 in 0.8 mi ESE 24.2 mph - 0.02 in Snow Light Snow
4:35 AM 23.0 °F 8.7 °F 23.0 °F 100% 29.65 in 0.5 mi SE 18.4 mph 26.5 mph 0.06 in Snow Snow
4:55 AM 23.0 °F 7.6 °F 23.0 °F 100% 29.65 in 0.2 mi ESE 21.9 mph 27.6 mph 0.14 in Snow Heavy Snow
5:15 AM 23.0 °F 8.0 °F 23.0 °F 100% 29.64 in 1.0 mi SE 20.7 mph 26.5 mph N/A Snow Light Snow
5:35 AM 23.0 °F 8.0 °F 23.0 °F 100% 29.64 in 1.5 mi SE 20.7 mph 27.6 mph 0.01 in Snow Light Snow
5:55 AM 23.0 °F 8.0 °F 23.0 °F 100% 29.64 in 0.5 mi SE 20.7 mph 28.8 mph 0.04 in Snow Snow
6:15 AM 23.0 °F 8.0 °F 23.0 °F 100% 29.63 in 0.5 mi SE 20.7 mph 29.9 mph 0.04 in Snow Snow
6:35 AM 23.0 °F 8.3 °F 23.0 °F 100% 29.63 in 0.8 mi SE 19.6 mph 26.5 mph 0.07 in Snow Light Snow
6:55 AM 23.0 °F 8.0 °F 23.0 °F 100% 29.63 in 0.2 mi SE 20.7 mph 28.8 mph 0.14 in Snow Heavy Snow
7:15 AM 23.0 °F 8.0 °F 23.0 °F 100% 29.62 in 0.2 mi ESE 20.7 mph 31.1 mph 0.05 in Snow Heavy Snow
7:35 AM 23.0 °F 8.3 °F 23.0 °F 100% 29.63 in 0.2 mi SE 19.6 mph 28.8 mph 0.12 in Snow Heavy Snow
7:55 AM 23.0 °F 8.7 °F 23.0 °F 100% 29.63 in 0.2 mi SE 18.4 mph 25.3 mph 0.14 in Snow Heavy Snow
8:15 AM 23.0 °F 8.3 °F 23.0 °F 100% 29.63 in 0.5 mi SE 19.6 mph 25.3 mph N/A Snow Snow
8:35 AM 23.0 °F 9.6 °F 23.0 °F 100% 29.63 in 1.0 mi SE 16.1 mph 26.5 mph 0.01 in Snow Light Snow
8:55 AM 23.0 °F 8.3 °F 23.0 °F 100% 29.63 in 1.8 mi SE 19.6 mph 23.0 mph 0.01 in Snow Light Snow
9:15 AM 23.0 °F 10.6 °F 23.0 °F 100% 29.63 in 8.0 mi SE 13.8 mph 24.2 mph N/A   Overcast
9:35 AM 23.0 °F 8.7 °F 23.0 °F 100% 29.63 in 9.0 mi SE 18.4 mph - N/A   Overcast
9:55 AM 23.0 °F 9.2 °F 23.0 °F 100% 29.63 in 9.0 mi SE 17.3 mph - N/A   Overcast
10:15 AM 24.8 °F 11.1 °F 23.0 °F 93% 29.64 in 9.0 mi ESE 18.4 mph 23.0 mph N/A   Overcast
10:35 AM 24.8 °F 11.1 °F 23.0 °F 93% 29.64 in 9.0 mi ESE 18.4 mph 23.0 mph N/A   Overcast
10:55 AM 24.8 °F 11.9 °F 23.0 °F 93% 29.65 in 8.0 mi ESE 16.1 mph - N/A   Overcast
11:15 AM 24.8 °F 12.4 °F 24.8 °F 100% 29.65 in 9.0 mi ESE 15.0 mph - N/A   Overcast
11:35 AM 24.8 °F 13.4 °F 24.8 °F 100% 29.66 in 10.0 mi SE 12.7 mph - N/A   Overcast
11:55 AM 26.6 °F 16.2 °F 24.8 °F 93% 29.66 in 9.0 mi SE 11.5 mph - N/A   Overcast
12:15 PM 26.6 °F 15.2 °F 24.8 °F 93% 29.67 in 9.0 mi ESE 13.8 mph - N/A   Overcast
12:55 PM 24.8 °F 12.4 °F 24.8 °F 100% 29.68 in 7.0 mi ESE 15.0 mph - N/A   Overcast
1:15 PM 24.8 °F 11.9 °F 24.8 °F 100% 29.68 in 5.0 mi ESE 16.1 mph - N/A   Overcast
1:35 PM 24.8 °F 11.9 °F 24.8 °F 100% 29.69 in 5.0 mi ESE 16.1 mph - N/A   Overcast
1:55 PM 24.8 °F 12.4 °F 24.8 °F 100% 29.70 in 5.0 mi East 15.0 mph - N/A   Overcast
2:15 PM 24.8 °F 11.9 °F 24.8 °F 100% 29.70 in 4.0 mi East 16.1 mph - N/A   Overcast
2:35 PM 24.8 °F 12.4 °F 24.8 °F 100% 29.71 in 5.0 mi East 15.0 mph - N/A   Overcast
2:55 PM 24.8 °F 11.5 °F 24.8 °F 100% 29.72 in 5.0 mi East 17.3 mph - N/A   Overcast
3:15 PM 24.8 °F 11.5 °F 24.8 °F 100% 29.72 in 3.0 mi East 17.3 mph - N/A Snow Light Snow
3:35 PM 24.8 °F 11.1 °F 24.8 °F 100% 29.73 in 3.0 mi East 18.4 mph - N/A Snow Light Snow
3:55 PM 24.8 °F 11.1 °F 24.8 °F 100% 29.74 in 2.5 mi East 18.4 mph - N/A Snow Light Snow
4:15 PM 24.8 °F 11.5 °F 24.8 °F 100% 29.76 in 2.0 mi ENE 17.3 mph 23.0 mph N/A Snow Light Snow
4:35 PM 24.8 °F 11.9 °F 24.8 °F 100% 29.78 in 1.8 mi ENE 16.1 mph - 0.01 in Snow Light Snow
4:55 PM 24.8 °F 11.5 °F 24.8 °F 100% 29.79 in 2.5 mi ENE 17.3 mph - 0.03 in Snow Light Snow
5:15 PM 24.8 °F 12.4 °F 24.8 °F 100% 29.81 in 1.0 mi NE 15.0 mph - 0.09 in Snow Light Snow
5:35 PM 24.8 °F 11.5 °F 24.8 °F 100% 29.83 in 1.2 mi NE 17.3 mph - 0.29 in Snow Light Snow
5:55 PM 24.8 °F 11.1 °F 24.8 °F 100% 29.85 in 0.8 mi NE 18.4 mph - 0.40 in Snow Light Snow
6:15 PM 24.8 °F 11.5 °F 24.8 °F 100% 29.87 in 0.8 mi NE 17.3 mph - 0.15 in Snow Light Snow
6:35 PM 23.0 °F 8.0 °F 23.0 °F 100% 29.88 in 0.8 mi NE 20.7 mph - 0.24 in Snow Light Snow
6:55 PM 23.0 °F 8.0 °F 23.0 °F 100% 29.90 in 1.0 mi NE 20.7 mph - 0.29 in Snow Light Snow
7:15 PM 23.0 °F 7.6 °F 23.0 °F 100% 29.92 in 1.2 mi NE 21.9 mph - 0.07 in Snow Light Snow
7:35 PM 23.0 °F 8.7 °F 23.0 °F 100% 29.94 in 2.0 mi NNE 18.4 mph - 0.17 in Snow Light Snow
7:55 PM 23.0 °F 8.7 °F 23.0 °F 100% 29.96 in 2.0 mi NE 18.4 mph - 0.23 in Snow Light Snow
8:35 PM 23.0 °F 8.3 °F 23.0 °F 100% 29.99 in 4.0 mi NNE 19.6 mph - 0.01 in Snow Light Snow
8:55 PM 23.0 °F 8.3 °F 23.0 °F 100% 30.00 in 2.5 mi NNE 19.6 mph 25.3 mph 0.03 in Snow Light Snow
9:15 PM 21.2 °F 5.6 °F 21.2 °F 100% 30.01 in 2.5 mi NNE 20.7 mph 24.2 mph N/A Snow Light Snow
9:35 PM 21.2 °F 5.6 °F 21.2 °F 100% 30.03 in 2.0 mi North 20.7 mph 26.5 mph 0.01 in Snow Light Snow
9:55 PM 21.2 °F 5.6 °F 21.2 °F 100% 30.04 in 3.0 mi North 20.7 mph - 0.02 in Snow Light Snow
10:15 PM 21.2 °F 5.2 °F 19.4 °F 93% 30.05 in 1.5 mi North 21.9 mph 26.5 mph 0.01 in Snow Light Snow
10:35 PM 21.2 °F 6.0 °F 19.4 °F 93% 30.06 in 1.8 mi North 19.6 mph - 0.03 in Snow Light Snow
10:55 PM 19.4 °F 3.2 °F 19.4 °F 100% 30.07 in 4.0 mi North 20.7 mph 26.5 mph 0.03 in Snow Light Snow
11:15 PM 19.4 °F 2.8 °F 19.4 °F 100% 30.08 in 3.0 mi North 21.9 mph 28.8 mph N/A Snow Light Snow
11:35 PM 19.4 °F 2.8 °F 17.6 °F 93% 30.10 in 3.0 mi North 21.9 mph 27.6 mph N/A   Overcast
11:55 PM 17.6 °F 0.9 °F 17.6 °F 100% 30.10 in 4.0 mi North 20.7 mph 26.5 mph N/A Snow Light Snow